COSMOS 249 DEB, 3609

Orbit data source: Space-Track

COSMOS 249 DEB, 3609 is space debris in LEO originally from a launch on Sun, 20 Oct 1968 UTC launched from the Tyuratam Missile And Space Complex (TTMTR). Debris objects in space refer to the collection of defunct objects orbiting the Earth. Examples of debris include non-operational satellites, rocket bodies, and fragments generated from explosions, collisions, or faulty payload assembly.

Loading next visibility...
Identifier
3609, 1968-091AB
Orbit
LEO
Country
Flag of CISCIS
Related business
Manufacturer
Unknown
Mission
Spacecraft
Bus & Motor
Unknown
Mass
Unknown
Launch date (UTC)
1968-10-20 (58 years ago)
Launch vehicle
Unknown
Launch site
Tyuratam Missile And Space Complex (TTMTR)
Object type
Payload
Rocket body
Debris
Shape & HBR
Unknown shape, 0.1 m
Radar Cross Section
Small (<0.1 m²)

Expand to show TLE details & history
Last TLE update: 4 hours ago

TLE from 4 hours ago
0 COSMOS 249 DEB
1  3609U 68091AB  26145.20781370  .00002184  00000-0  39643-3 0  9991
2  3609  62.2709 216.9658 0736671 129.3843 237.4839 13.66119820701756
Epoch: 2026-05-25T04:59Z
TLE epoch observation values (Epoch: 2026-05-25T04:59:15.103Z)
Latitude
-0.00001°
Longitude
-100.64605°
Altitude
1,334.831 km
Speed
7.034 km/s
True Right ascension
14h 27m 51s
True Declination
0° 00' 00"
Sunlit
Object was in full shadow at epoch
Visualization orbit readout
Latitude
Unknown
Longitude
Unknown
Altitude
Unknown
Speed
Unknown
Apparent Right ascension
Unknown
Apparent Declination
Unknown
Sunlit
N/A
Visualization observer readout
Local Sidereal Time
18:31:50
Azimuth
Unknown
Elevation
Unknown
Doppler factor
Unknown
Orbital elements
Apogee altitude
1,556.932 km
Perigee altitude
468.04 km
Semi-major axis
7,390.623 km
Eccentricity
0.07367
Inclination
62.2709°
RAAN
216.9658°
Arg. of periapsis
129.3843°
True anomaly
230.71755°
Mean anomaly
237.4839°
Eccentric anomaly
234.06632°
Mean motion
3.41603 °/min
Orbital period
105.39 mins
BSTAR
0.00039643
Loading maneuver chart data...
Computing Atmospheric mass density...
Loading historical data...
Loading historical data...
Loading historical data...
Loading historical data...
Loading historical data...
Loading historical data...
Loading historical data...

Documentation

Showing up to 5 results
|